This is the latest recevied weather packets stored in our database for station/object W6MAF. If no packets are shown the sender has not sent any weather packets the latest 10 day(s).
| Time | Temp. | Humidity | Pressure | Rain* | Wind** | Luminosity | Snow |
|---|---|---|---|---|---|---|---|
| 1788400072 | 22.22° C | 4% | - | 0 mm | 0 m/s | - | - |
| 1788399774 | 22.22° C | 4% | - | 0 mm | 0 m/s | - | - |
| 1788399473 | 22.78° C | 4% | - | 0 mm | 0 m/s | - | - |
| 1788399176 | 22.78° C | 4% | - | 0 mm | 4.47 m/s, 204° | - | - |
| 1788398878 | 22.78° C | 4% | - | 0 mm | 0 m/s | - | - |
| 1788398580 | 23.33° C | 4% | - | 0 mm | 0 m/s | - | - |
| 1788398282 | 23.33° C | 5% | - | 0 mm | 0 m/s | - | - |
| 1788397985 | 23.33° C | 5% | - | 0 mm | 0 m/s | - | - |
| 1788397684 | 23.33° C | 5% | - | 0 mm | 0 m/s | - | - |
| 1788397386 | 23.33° C | 5% | - | 0 mm | 0 m/s | - | - |
| 1788397088 | 23.33° C | 5% | - | 0 mm | 1.34 m/s, 165° | - | - |
| 1788396791 | 23.33° C | 5% | - | 0 mm | 4.47 m/s, 198° | - | - |
| 1788396493 | 23.89° C | 6% | - | 0 mm | 0 m/s | - | - |
| 1788396195 | 23.89° C | 6% | - | 0 mm | 0.45 m/s, 204° | - | - |
| 1788395894 | 23.89° C | 6% | - | 0 mm | 0.45 m/s, 205° | - | - |
| 1788395597 | 23.89° C | 6% | - | 0 mm | 0 m/s | - | - |
| 1788395377 | 23.89° C | 6% | - | 0 mm | 0.45 m/s, 200° | - | - |
| 1788395299 | 23.89° C | 6% | - | 0 mm | 0.45 m/s, 200° | - | - |
| 1788395001 | 23.89° C | 7% | - | 0 mm | 1.34 m/s, 212° | - | - |
| 1788394703 | 23.89° C | 9% | - | 0 mm | 3.58 m/s, 203° | - | - |
| 1788394407 | 23.89° C | 8% | - | 0 mm | 6.26 m/s, 204° | - | - |
| 1788394104 | 24.44° C | 8% | - | 0 mm | 1.79 m/s, 194° | - | - |
| 1788393807 | 24.44° C | 8% | - | 0 mm | 1.79 m/s, 187° | - | - |
| 1788393509 | 24.44° C | 7% | - | 0 mm | 4.02 m/s, 194° | - | - |
| 1788393211 | 24.44° C | 6% | - | 0 mm | 2.24 m/s, 221° | - | - |
* Rain latest hour (hover to see other rain measurements)
** Current wind speed in m/s (hover to see current wind gust speed)